Tracking 19575 objects as of 18-Feb-2019
HD Live streaming from Space Station
objects crossing your sky now

BRAZILSAT 1

Track BRAZILSAT 1 now!
BRAZILSAT 1 is classified as:


NORAD ID: 15561
Int'l Code: 1985-015B
Perigee: 35,958.2 km
Apogee: 36,036.9 km
Inclination: 15.3 °
Period: 1,446.5 minutes
Semi major axis: 42368 km
RCS: 2.7147 m2 (large)
Launch date: February 8, 1985
Source: Brazil (BRAZ)
Launch site: FRENCH GUIANA (FRGUI)
aabbcc
Your satellite tracking list
Your tracking list is empty




NASA's NSSDC Master Catalog

Two Line Element Set (TLE):
1 15561U 85015B   19048.76888432 -.00000265 +00000-0 +00000-0 0  9999
2 15561 015.3089 006.9843 0009281 307.2901 052.8111 00.99549155019698
Source of the keplerian elements: AFSPC